DECAYED

STARLINK-1929, 46788 (Decayed)

Orbit data source: Space-Track

STARLINK-1929, 46788 was a payload satellite owned by SpaceX/Seattle (US) in LEO that was launched on Sat, 24 Oct 2020 UTC via an FALCON 9 launch vehicle from the Air Force Eastern Test Range (AFETR). Payload-class satellites include a variety of spacecraft equipped with specific instruments for various scientific and technological missions. These include communications satellites like Starlink; space stations such as the ISS; scientific satellites like the Hubble; Earth observation satellites from companies like Planet Labs, Umbra, and HawkEye 360; GPS; miniature CubeSats for education and research; and military/defense satellites.

Not visible in the next 10 days
Identifier
46788, 2020-074BB
Orbit
Decayed
Country
Flag of USUS
Related business
Manufacturer
SpaceX/Seattle
Mission
Decayed Commercial Communications
Bus & Motor
STARLINK, Unknown motor
Mass
260 kg wet, ~248 kg dry
Launch date (UTC)
2020-10-24 (6 years ago)
Launch vehicle
FALCON 9
Launch site
Air Force Eastern Test Range (AFETR)
Object type
Payload
Rocket body
Debris
Shape & HBR
Box + 1 Pan, 10.1 m
Radar Cross Section
13.562 m², Large (>1 m²)

Expand to show TLE details & history
Last TLE update: 2 years ago

TLE from 2 years ago
0 STARLINK-1929
1 46788U 20074BB  25031.57417929  .45515843  12194-4  62128-3 0  9999
2 46788  53.0145 261.9859 0024138 155.8430 290.3215 16.46739593236654
Epoch: 2025-01-31T13:46Z
TLE epoch observation values (Epoch: 2025-01-31T13:46:49.090Z)
Latitude
52.97979°
Longitude
7.45171°
Altitude
148.924 km
Speed
7.827 km/s
True Right ascension
23h 00m 45s
True Declination
52° 47' 56"
Sunlit
Object was in daylight at epoch
Visualization orbit readout
Latitude
Unknown
Longitude
Unknown
Altitude
Unknown
Speed
Unknown
Apparent Right ascension
Unknown
Apparent Declination
Unknown
Sunlit
N/A
Visualization observer readout
Local Sidereal Time
21:52:16
Azimuth
Unknown
Elevation
Unknown
Doppler factor
Unknown
Orbital elements
Apogee altitude
163.982 km
Perigee altitude
132.476 km
Semi-major axis
6,526.366 km
Eccentricity
0.00241
Inclination
53.0145°
RAAN
261.9859°
Arg. of periapsis
155.843°
True anomaly
290.06184°
Mean anomaly
290.3215°
Eccentric anomaly
290.1917°
Mean motion
4.11657 °/min
Orbital period
87.45 mins
BSTAR
0.00062128
Loading maneuver chart data...
Computing Atmospheric mass density...

Documentation

Showing up to 5 results
|